| time (UTC) | temp C | wind direction | speed KPH | gust KPH | rain 1hr cm | rain 24hr cm | rain mn cm | humidity % | barometer mb |
| 20260507074550 | 11 | 98 | 12.9 | 20.9 | 0.00 | 0.05 | 0.00 | 100 | |
| 20260507073050 | 11 | 54 | 9.7 | 19.3 | 0.00 | 0.05 | 0.00 | 100 | |
| 20260507071550 | 10 | 102 | 6.4 | 20.9 | 0.00 | 0.05 | 0.00 | 100 | |
| 20260507070050 | 10 | 135 | 1.6 | 19.3 | 0.00 | 0.05 | 0.00 | 100 | |
| 20260507064550 | 10 | 61 | 12.9 | 17.7 | 0.00 | 0.05 | 0.00 | 100 | |
| 20260507063050 | 10 | 56 | 6.4 | 14.5 | 0.00 | 0.05 | 0.00 | 100 | |
| 20260507061550 | 9 | 104 | 6.4 | 16.1 | 0.00 | 0.05 | 0.00 | 100 | |
| 20260507060050 | 9 | 63 | 8.0 | 16.1 | 0.00 | 0.05 | 0.00 | 100 | |
| 20260507054550 | 8 | 81 | 12.9 | 20.9 | 0.00 | 0.05 | 0.00 | 100 | |
| 20260507053050 | 8 | 104 | 6.4 | 17.7 | 0.00 | 0.05 | 0.00 | 100 | |
| 20260507051550 | 8 | 74 | 9.7 | 17.7 | 0.00 | 0.05 | 0.00 | 100 | |
| 20260507050050 | 8 | 82 | 3.2 | 19.3 | 0.00 | 0.05 | 0.00 | 100 | |
| 20260507044550 | 8 | 33 | 6.4 | 20.9 | 0.00 | 0.05 | 0.00 | 100 | |
| 20260507043050 | 8 | 56 | 6.4 | 20.9 | 0.00 | 0.05 | 0.00 | 100 | |
| 20260507041550 | 7 | 53 | 11.3 | 14.5 | 0.00 | 0.05 | 0.00 | 100 | |
| 20260507040050 | 7 | 26 | 3.2 | 14.5 | 0.00 | 0.05 | 0.00 | 100 | |
| 20260507034551 | 7 | 54 | 0.0 | 11.3 | 0.00 | 0.05 | 0.00 | 100 | |
| 20260507033051 | 7 | 15 | 9.7 | 16.1 | 0.00 | 0.05 | 0.00 | 100 | |
| 20260507031551 | 7 | 112 | 6.4 | 12.9 | 0.00 | 0.05 | 0.00 | 100 | |
| 20260507030051 | 7 | 157 | 9.7 | 14.5 | 0.00 | 0.05 | 0.00 | 100 | |
| 20260507024551 | 7 | 97 | 6.4 | 14.5 | 0.00 | 0.05 | 0.00 | 100 | |
| 20260507023051 | 7 | 63 | 1.6 | 16.1 | 0.00 | 0.05 | 0.00 | 100 | |
| 20260507021551 | 7 | 94 | 16.1 | 19.3 | 0.00 | 0.05 | 0.00 | 100 | |
| 20260507020051 | 7 | 130 | 3.2 | 14.5 | 0.00 | 0.05 | 0.00 | 100 | |
| 20260507014551 | 7 | 142 | 4.8 | 14.5 | 0.00 | 0.05 | 0.00 | 100 | |
| 20260507013051 | 7 | 130 | 4.8 | 19.3 | 0.00 | 0.05 | 0.00 | 100 | |
| 20260507011551 | 7 | 71 | 8.0 | 12.9 | 0.00 | 0.05 | 0.00 | 100 | |
| 20260507010051 | 7 | 112 | 8.0 | 16.1 | 0.00 | 0.05 | 0.00 | 100 | |
| 20260507004551 | 7 | 113 | 9.7 | 16.1 | 0.00 | 0.05 | 0.00 | 100 | |
| 20260507003051 | 7 | 106 | 4.8 | 14.5 | 0.00 | 0.05 | 0.00 | 100 | |
| 20260507001551 | 7 | 92 | 3.2 | 12.9 | 0.00 | 0.05 | 0.00 | 100 | |
| 20260507000051 | 7 | 140 | 4.8 | 17.7 | 0.00 | 0.05 | 0.00 | 100 | |
| 20260506234551 | 7 | 52 | 9.7 | 11.3 | 0.00 | 0.05 | 0.00 | 100 | |
| 20260506233051 | 7 | 136 | 4.8 | 17.7 | 0.00 | 0.05 | 0.00 | 100 | |
| 20260506231551 | 7 | 22 | 3.2 | 16.1 | 0.00 | 0.05 | 0.00 | 100 | |
| 20260506230052 | 7 | 90 | 6.4 | 17.7 | 0.00 | 0.05 | 0.00 | 100 | |
| 20260506224552 | 7 | 39 | 9.7 | 19.3 | 0.00 | 0.05 | 0.00 | 100 | |
| 20260506223052 | 7 | 165 | 8.0 | 14.5 | 0.00 | 0.05 | 0.00 | 100 | |
| 20260506221552 | 7 | 73 | 8.0 | 27.4 | 0.00 | 0.05 | 0.00 | 100 | |
| 20260506220052 | 7 | 80 | 11.3 | 20.9 | 0.00 | 0.05 | 0.00 | 100 | |
| 20260506214552 | 7 | 87 | 4.8 | 17.7 | 0.00 | 0.05 | 0.00 | 100 | |
| 20260506213052 | 7 | 81 | 9.7 | 17.7 | 0.00 | 0.05 | 0.00 | 100 | |
| 20260506211552 | 7 | 111 | 6.4 | 14.5 | 0.00 | 0.05 | 0.00 | 100 | |
| 20260506210052 | 7 | 98 | 9.7 | 17.7 | 0.00 | 0.05 | 0.00 | 100 | |
| 20260506204552 | 7 | 91 | 9.7 | 16.1 | 0.00 | 0.05 | 0.00 | 100 | |
| 20260506203052 | 7 | 113 | 6.4 | 16.1 | 0.00 | 0.05 | 0.00 | 100 | |
| 20260506201552 | 7 | 77 | 4.8 | 17.7 | 0.00 | 0.05 | 0.00 | 100 | |
| 20260506200052 | 7 | 154 | 6.4 | 17.7 | 0.00 | 0.05 | 0.05 | 100 | |
| 20260506194552 | 7 | 118 | 9.7 | 14.5 | 0.00 | 0.05 | 0.05 | 100 | |
| 20260506193052 | 7 | 127 | 1.6 | 14.5 | 0.00 | 0.05 | 0.05 | 100 | |
| 20260506191552 | 7 | 102 | 3.2 | 24.1 | 0.00 | 0.05 | 0.05 | 100 | |
| 20260506190052 | 7 | 123 | 8.0 | 12.9 | 0.00 | 0.05 | 0.05 | 100 | |
| 20260506184553 | 7 | 80 | 8.0 | 17.7 | 0.00 | 0.05 | 0.05 | 100 | |
| 20260506183052 | 7 | 53 | 14.5 | 17.7 | 0.00 | 0.05 | 0.05 | 100 | |
| 20260506181553 | 7 | 71 | 11.3 | 19.3 | 0.00 | 0.05 | 0.05 | 100 | |
| 20260506180053 | 8 | 112 | 8.0 | 19.3 | 0.00 | 0.05 | 0.05 | 100 | |
| 20260506174553 | 8 | 80 | 6.4 | 22.5 | 0.00 | 0.05 | 0.05 | 100 | |
| 20260506173053 | 8 | 116 | 6.4 | 19.3 | 0.00 | 0.05 | 0.05 | 100 | |
| 20260506171553 | 8 | 120 | 4.8 | 20.9 | 0.00 | 0.05 | 0.05 | 100 | |
| 20260506170053 | 8 | 95 | 4.8 | 20.9 | 0.00 | 0.05 | 0.05 | 100 | |
| 20260506164553 | 8 | 85 | 8.0 | 22.5 | 0.03 | 0.05 | 0.05 | 100 | |
| 20260506163053 | 8 | 132 | 6.4 | 16.1 | 0.03 | 0.05 | 0.05 | 100 | |
| 20260506161553 | 8 | 129 | 3.2 | 20.9 | 0.03 | 0.05 | 0.05 | 100 | |
| 20260506160053 | 9 | 82 | 9.7 | 20.9 | 0.03 | 0.05 | 0.05 | 100 | |
| 20260506154553 | 8 | 116 | 8.0 | 19.3 | 0.00 | 0.03 | 0.03 | 100 | |
| 20260506153053 | 8 | 61 | 12.9 | 22.5 | 0.00 | 0.03 | 0.03 | 100 | |
| 20260506151553 | 8 | 156 | 11.3 | 16.1 | 0.00 | 0.03 | 0.03 | 100 | |
| 20260506150053 | 8 | 67 | 8.0 | 20.9 | 0.00 | 0.03 | 0.03 | 100 | |
| 20260506144554 | 8 | 102 | 9.7 | 19.3 | 0.00 | 0.03 | 0.03 | 100 | |
| 20260506143053 | 9 | 56 | 12.9 | 17.7 | 0.00 | 0.03 | 0.03 | 100 | |
| 20260506141553 | 9 | 132 | 11.3 | 20.9 | 0.00 | 0.03 | 0.03 | 100 | |
| 20260506140053 | 9 | 46 | 16.1 | 20.9 | 0.00 | 0.05 | 0.03 | 100 | |
| 20260506134553 | 10 | 94 | 9.7 | 17.7 | 0.00 | 0.05 | 0.03 | 100 | |
| 20260506133053 | 10 | 66 | 16.1 | 17.7 | 0.03 | 0.05 | 0.03 | 100 | |
| 20260506131554 | 10 | 71 | 4.8 | 17.7 | 0.03 | 0.05 | 0.03 | 100 | |
| 20260506130054 | 10 | 92 | 4.8 | 17.7 | 0.03 | 0.05 | 0.03 | 100 | |
| 20260506124554 | 10 | 35 | 11.3 | 19.3 | 0.03 | 0.05 | 0.03 | 100 | |
| 20260506123054 | 10 | 105 | 6.4 | 16.1 | 0.00 | 0.03 | 0.00 | 100 | |
| 20260506121554 | 10 | 136 | 3.2 | 17.7 | 0.00 | 0.03 | 0.00 | 100 | |
| 20260506120054 | 10 | 108 | 14.5 | 20.9 | 0.00 | 0.10 | 0.00 | 100 | |
| 20260506114554 | 10 | 77 | 8.0 | 17.7 | 0.00 | 0.10 | 0.00 | 100 | |
| 20260506113054 | 10 | 122 | 6.4 | 19.3 | 0.00 | 0.10 | 0.00 | 100 | |
| 20260506111554 | 11 | 75 | 12.9 | 19.3 | 0.00 | 0.10 | 0.00 | 100 | |
| 20260506110054 | 11 | 68 | 6.4 | 19.3 | 0.00 | 0.18 | 0.00 | 100 | |
| 20260506104554 | 11 | 84 | 8.0 | 20.9 | 0.00 | 0.18 | 0.00 | 100 | |
| 20260506103054 | 11 | 113 | 9.7 | 24.1 | 0.00 | 0.18 | 0.00 | 100 | |
| 20260506101554 | 12 | 39 | 11.3 | 14.5 | 0.00 | 0.18 | 0.00 | 100 | |
| 20260506100054 | 12 | 90 | 8.0 | 20.9 | 0.00 | 0.20 | 0.00 | 100 | |
| 20260506094554 | 12 | 74 | 14.5 | 20.9 | 0.00 | 0.20 | 0.00 | 100 | |
| 20260506093054 | 12 | 68 | 9.7 | 19.3 | 0.00 | 0.20 | 0.00 | 100 | |
| 20260506091554 | 12 | 37 | 4.8 | 17.7 | 0.00 | 0.20 | 0.00 | 100 | |
| 20260506090055 | 11 | 40 | 11.3 | 25.7 | 0.00 | 0.23 | 0.00 | 100 | |
| 20260506084555 | 11 | 59 | 11.3 | 25.7 | 0.00 | 0.23 | 0.00 | 100 | |
| 20260506083055 | 11 | 87 | 9.7 | 24.1 | 0.00 | 0.23 | 0.00 | 100 | |
| 20260506081555 | 11 | 67 | 9.7 | 24.1 | 0.00 | 0.23 | 0.00 | 100 |